This is the latest recevied weather packets stored in our database for station/object KR4CWL-13. If no packets are shown the sender has not sent any weather packets the latest 10 day(s).
| Time | Temp. | Humidity | Pressure | Rain* | Wind** | Luminosity | Snow |
|---|---|---|---|---|---|---|---|
| 1777734237 | 11.67° C | 85% | 1006.1 hPa | 0 mm | - | - | - |
| 1777733637 | 11.11° C | 88% | 1006.1 hPa | 0 mm | - | - | - |
| 1777733037 | 11.11° C | 90% | 1006.4 hPa | 0 mm | - | - | - |
| 1777732437 | 11.11° C | 88% | 1006.8 hPa | 0 mm | - | - | - |
| 1777731837 | 11.11° C | 90% | 1006.8 hPa | 0 mm | - | - | - |
| 1777731237 | 10.56° C | 94% | 1006.8 hPa | 0 mm | - | - | - |
| 1777730637 | 10.56° C | 93% | 1006.4 hPa | 0 mm | - | - | - |
| 1777730037 | 10° C | 94% | 1006.4 hPa | 0 mm | - | - | - |
| 1777729437 | 10° C | 97% | 1006.1 hPa | 0 mm | - | - | - |
| 1777728837 | 10° C | 97% | 1005.8 hPa | 0 mm | - | - | - |
| 1777728237 | 10° C | 99% | 1005.8 hPa | 0 mm | - | - | - |
| 1777727637 | 10° C | 99% | 1005.8 hPa | 0 mm | - | - | - |
| 1777727037 | 10° C | 99% | 1006.1 hPa | 0 mm | - | - | - |
| 1777726437 | 10° C | 99% | 1005.4 hPa | 0 mm | - | - | - |
| 1777725837 | 10° C | 99% | 1005.4 hPa | 0 mm | - | - | - |
| 1777725237 | 10° C | 99% | 1005.4 hPa | 0 mm | - | - | - |
| 1777724637 | 10.56° C | 99% | 1005.4 hPa | 0 mm | - | - | - |
| 1777724037 | 10.56° C | 99% | 1005.4 hPa | 0 mm | - | - | - |
| 1777723437 | 10.56° C | 99% | 1005.1 hPa | 0 mm | - | - | - |
| 1777722837 | 10.56° C | 99% | 1005.1 hPa | 0 mm | - | - | - |
| 1777722237 | 10.56° C | 99% | 1004.7 hPa | 0 mm | - | - | - |
| 1777721637 | 10.56° C | 99% | 1004.7 hPa | 0 mm | - | - | - |
| 1777721037 | 10.56° C | 99% | 1005.1 hPa | 0 mm | - | - | - |
| 1777720437 | 10.56° C | 99% | 1005.1 hPa | 0 mm | - | - | - |
| 1777719837 | 10.56° C | 99% | 1005.1 hPa | 0 mm | - | - | - |
* Rain since midnight (hover to see other rain measurements)
** Current wind speed in m/s (hover to see current wind gust speed)